contact:dominique.lefevre@mio.osupytheas.fr, maurice.libes@osupytheas.fr, didier.mallarino@osupytheas.fr
Project:EMSO http://www.emso-fr.org/EMSO-France
Depth: 2436.0 m
Title:EMSO Ligure Ouest : Data MII capteur MICROCAT
DateTime_Computer,Latitude,Longitude,Temperature,Conductivity,Pressure,DateTime_Instrument
DateTime_Computer,Latitude,Longitude,degC,S m-1,dbar,DateTime_Instrument
2019-11-29T00:00:27Z,42.805,6.029,13.2974,4.59986,2469.993,2019-11-29T02:00:56Z
2019-11-29T00:03:30Z,42.805,6.029,13.2976,4.59983,2469.984,2019-11-29T02:03:59Z
2019-11-29T00:06:33Z,42.805,6.029,13.2977,4.59985,2469.96,2019-11-29T02:07:02Z
2019-11-29T00:09:36Z,42.805,6.029,13.2975,4.59977,2469.937,2019-11-29T02:10:05Z
2019-11-29T00:12:40Z,42.805,6.029,13.2975,4.59978,2469.97,2019-11-29T02:13:08Z
2019-11-29T00:15:43Z,42.805,6.029,13.2971,4.59981,2469.984,2019-11-29T02:16:12Z
2019-11-29T00:18:46Z,42.805,6.029,13.2972,4.59980,2469.97,2019-11-29T02:19:15Z
2019-11-29T00:21:49Z,42.805,6.029,13.2972,4.59982,2469.97,2019-11-29T02:22:18Z
2019-11-29T00:24:52Z,42.805,6.029,13.2974,4.59977,2469.947,2019-11-29T02:25:21Z
2019-11-29T00:27:56Z,42.805,6.029,13.2975,4.59976,2469.923,2019-11-29T02:28:24Z
2019-11-29T00:30:59Z,42.805,6.029,13.2975,4.59976,2469.97,2019-11-29T02:31:28Z
2019-11-29T00:34:02Z,42.805,6.029,13.2972,4.59976,2469.937,2019-11-29T02:34:31Z
2019-11-29T00:37:05Z,42.805,6.029,13.2974,4.59986,2469.947,2019-11-29T02:37:34Z
2019-11-29T00:40:08Z,42.805,6.029,13.2975,4.59978,2469.947,2019-11-29T02:40:37Z
2019-11-29T00:43:12Z,42.805,6.029,13.2974,4.59978,2469.96,2019-11-29T02:43:40Z
2019-11-29T00:46:15Z,42.805,6.029,13.2975,4.59974,2469.984,2019-11-29T02:46:44Z
2019-11-29T00:49:18Z,42.805,6.029,13.2978,4.59977,2469.96,2019-11-29T02:49:47Z
2019-11-29T00:52:21Z,42.805,6.029,13.2975,4.59978,2469.923,2019-11-29T02:52:50Z
2019-11-29T00:55:25Z,42.805,6.029,13.2976,4.59976,2469.947,2019-11-29T02:55:53Z
2019-11-29T00:58:28Z,42.805,6.029,13.2975,4.59983,2469.947,2019-11-29T02:58:57Z
2019-11-29T01:01:31Z,42.805,6.029,13.2975,4.59975,2469.937,2019-11-29T03:02:00Z
2019-11-29T01:04:34Z,42.805,6.029,13.2976,4.59976,2469.96,2019-11-29T03:05:03Z
2019-11-29T01:07:37Z,42.805,6.029,13.2971,4.59976,2469.923,2019-11-29T03:08:06Z
2019-11-29T01:10:41Z,42.805,6.029,13.2974,4.59978,2469.96,2019-11-29T03:11:10Z
2019-11-29T01:13:44Z,42.805,6.029,13.2971,4.59976,2469.914,2019-11-29T03:14:13Z
2019-11-29T01:16:47Z,42.805,6.029,13.2976,4.59982,2469.96,2019-11-29T03:17:16Z
2019-11-29T01:19:50Z,42.805,6.029,13.2974,4.59981,2469.937,2019-11-29T03:20:19Z
2019-11-29T01:22:53Z,42.805,6.029,13.2975,4.59977,2469.947,2019-11-29T03:23:22Z
2019-11-29T01:25:57Z,42.805,6.029,13.2974,4.59978,2469.923,2019-11-29T03:26:25Z
2019-11-29T01:29:00Z,42.805,6.029,13.2971,4.59978,2469.937,2019-11-29T03:29:29Z
2019-11-29T01:32:03Z,42.805,6.029,13.2975,4.59978,2469.923,2019-11-29T03:32:32Z
2019-11-29T01:35:06Z,42.805,6.029,13.2974,4.59976,2469.9,2019-11-29T03:35:35Z
2019-11-29T01:38:10Z,42.805,6.029,13.2971,4.59981,2469.937,2019-11-29T03:38:38Z
2019-11-29T01:41:13Z,42.805,6.029,13.2976,4.59976,2469.923,2019-11-29T03:41:42Z
2019-11-29T01:44:16Z,42.805,6.029,13.2973,4.59976,2469.923,2019-11-29T03:44:45Z
2019-11-29T01:47:19Z,42.805,6.029,13.2971,4.59976,2469.923,2019-11-29T03:47:48Z
2019-11-29T01:50:22Z,42.805,6.029,13.2972,4.59977,2469.923,2019-11-29T03:50:51Z
2019-11-29T01:53:25Z,42.805,6.029,13.2974,4.59981,2469.89,2019-11-29T03:53:54Z
2019-11-29T01:56:29Z,42.805,6.029,13.2972,4.59985,2469.947,2019-11-29T03:56:57Z
2019-11-29T01:59:32Z,42.805,6.029,13.2973,4.59981,2469.937,2019-11-29T04:00:01Z
2019-11-29T02:02:35Z,42.805,6.029,13.2976,4.59981,2469.876,2019-11-29T04:03:04Z
2019-11-29T02:05:38Z,42.805,6.029,13.2974,4.59976,2469.914,2019-11-29T04:06:07Z
2019-11-29T02:08:41Z,42.805,6.029,13.2973,4.59978,2469.914,2019-11-29T04:09:10Z
2019-11-29T02:11:45Z,42.805,6.029,13.2979,4.59976,2469.867,2019-11-29T04:12:13Z
2019-11-29T02:14:48Z,42.805,6.029,13.2974,4.59975,2469.89,2019-11-29T04:15:17Z
2019-11-29T02:17:51Z,42.805,6.029,13.2976,4.59976,2469.923,2019-11-29T04:18:20Z
2019-11-29T02:20:54Z,42.805,6.029,13.2974,4.59983,2469.923,2019-11-29T04:21:23Z
2019-11-29T02:23:58Z,42.805,6.029,13.2974,4.59981,2469.9,2019-11-29T04:24:27Z
2019-11-29T02:27:01Z,42.805,6.029,13.2976,4.59981,2469.914,2019-11-29T04:27:30Z
2019-11-29T02:30:04Z,42.805,6.029,13.2971,4.59978,2469.923,2019-11-29T04:30:33Z
2019-11-29T02:33:07Z,42.805,6.029,13.2976,4.59978,2469.923,2019-11-29T04:33:36Z
2019-11-29T02:36:11Z,42.805,6.029,13.2976,4.59976,2469.937,2019-11-29T04:36:39Z
2019-11-29T02:39:14Z,42.805,6.029,13.2974,4.59977,2469.937,2019-11-29T04:39:43Z
2019-11-29T02:42:17Z,42.805,6.029,13.2975,4.59977,2469.9,2019-11-29T04:42:46Z
2019-11-29T02:45:20Z,42.805,6.029,13.2973,4.59975,2469.89,2019-11-29T04:45:49Z
2019-11-29T02:48:23Z,42.805,6.029,13.2974,4.59976,2469.876,2019-11-29T04:48:52Z
2019-11-29T02:51:27Z,42.805,6.029,13.2974,4.59981,2469.937,2019-11-29T04:51:56Z
2019-11-29T02:54:30Z,42.805,6.029,13.2974,4.59979,2469.863,2019-11-29T04:54:59Z
2019-11-29T02:57:33Z,42.805,6.029,13.2975,4.59974,2469.9,2019-11-29T04:58:02Z
2019-11-29T03:00:37Z,42.805,6.029,13.2972,4.59979,2469.914,2019-11-29T05:01:05Z
2019-11-29T03:03:40Z,42.805,6.029,13.2972,4.59975,2469.89,2019-11-29T05:04:09Z
2019-11-29T03:06:43Z,42.805,6.029,13.2974,4.59973,2469.914,2019-11-29T05:07:12Z
2019-11-29T03:09:46Z,42.805,6.029,13.2976,4.59975,2469.923,2019-11-29T05:10:15Z
2019-11-29T03:12:49Z,42.805,6.029,13.2976,4.59973,2469.89,2019-11-29T05:13:18Z
2019-11-29T03:15:53Z,42.805,6.029,13.2971,4.59974,2469.876,2019-11-29T05:16:21Z
2019-11-29T03:18:56Z,42.805,6.029,13.2976,4.59974,2469.89,2019-11-29T05:19:25Z
2019-11-29T03:21:59Z,42.805,6.029,13.2974,4.59976,2469.923,2019-11-29T05:22:28Z
2019-11-29T03:25:02Z,42.805,6.029,13.2977,4.59974,2469.89,2019-11-29T05:25:31Z
2019-11-29T03:28:05Z,42.805,6.029,13.2971,4.59978,2469.876,2019-11-29T05:28:34Z
2019-11-29T03:31:09Z,42.805,6.029,13.2976,4.59976,2469.9,2019-11-29T05:31:37Z
2019-11-29T03:34:12Z,42.805,6.029,13.2977,4.59975,2469.9,2019-11-29T05:34:41Z
2019-11-29T03:37:15Z,42.805,6.029,13.2976,4.59974,2469.937,2019-11-29T05:37:44Z
2019-11-29T03:40:18Z,42.805,6.029,13.2975,4.59978,2469.923,2019-11-29T05:40:47Z
2019-11-29T03:43:21Z,42.805,6.029,13.2977,4.59975,2469.923,2019-11-29T05:43:50Z
2019-11-29T03:46:25Z,42.805,6.029,13.2976,4.59974,2469.853,2019-11-29T05:46:53Z
2019-11-29T03:49:28Z,42.805,6.029,13.2972,4.59976,2469.937,2019-11-29T05:49:57Z
2019-11-29T03:52:31Z,42.805,6.029,13.2976,4.59976,2469.937,2019-11-29T05:53:00Z
2019-11-29T03:55:34Z,42.805,6.029,13.2974,4.59975,2469.914,2019-11-29T05:56:03Z
2019-11-29T03:58:37Z,42.805,6.029,13.2974,4.59986,2469.9,2019-11-29T05:59:06Z
2019-11-29T04:01:41Z,42.805,6.029,13.2972,4.59977,2469.9,2019-11-29T06:02:09Z
2019-11-29T04:04:44Z,42.805,6.029,13.2974,4.59980,2469.923,2019-11-29T06:05:13Z
2019-11-29T04:07:47Z,42.805,6.029,13.2975,4.59980,2469.909,2019-11-29T06:08:16Z
2019-11-29T04:10:50Z,42.805,6.029,13.2974,4.59976,2469.9,2019-11-29T06:11:19Z
2019-11-29T04:13:53Z,42.805,6.029,13.2971,4.59976,2469.96,2019-11-29T06:14:22Z
2019-11-29T04:16:57Z,42.805,6.029,13.2974,4.59981,2469.9,2019-11-29T06:17:25Z
2019-11-29T04:20:00Z,42.805,6.029,13.2979,4.59974,2469.96,2019-11-29T06:20:29Z
2019-11-29T04:23:03Z,42.805,6.029,13.2974,4.59982,2469.914,2019-11-29T06:23:32Z
2019-11-29T04:26:06Z,42.805,6.029,13.2973,4.59976,2469.937,2019-11-29T06:26:35Z
2019-11-29T04:29:09Z,42.805,6.029,13.2974,4.59974,2469.947,2019-11-29T06:29:38Z
2019-11-29T04:32:13Z,42.805,6.029,13.2972,4.59973,2469.923,2019-11-29T06:32:41Z
2019-11-29T04:35:16Z,42.805,6.029,13.2976,4.59975,2469.937,2019-11-29T06:35:45Z
2019-11-29T04:38:19Z,42.805,6.029,13.2975,4.59983,2469.96,2019-11-29T06:38:48Z
2019-11-29T04:41:22Z,42.805,6.029,13.2975,4.59976,2469.96,2019-11-29T06:41:51Z
2019-11-29T04:44:25Z,42.805,6.029,13.2974,4.59974,2469.947,2019-11-29T06:44:54Z
2019-11-29T04:47:28Z,42.805,6.029,13.2976,4.59976,2469.96,2019-11-29T06:47:57Z
2019-11-29T04:50:32Z,42.805,6.029,13.2974,4.59973,2469.937,2019-11-29T06:51:01Z
2019-11-29T04:53:35Z,42.805,6.029,13.2977,4.59975,2469.947,2019-11-29T06:54:04Z
2019-11-29T04:56:38Z,42.805,6.029,13.2975,4.59975,2469.97,2019-11-29T06:57:07Z
2019-11-29T04:59:41Z,42.805,6.029,13.2973,4.59974,2469.97,2019-11-29T07:00:10Z
2019-11-29T05:02:44Z,42.805,6.029,13.2975,4.59973,2469.984,2019-11-29T07:03:13Z
2019-11-29T05:05:48Z,42.805,6.029,13.2974,4.59976,2469.97,2019-11-29T07:06:17Z
2019-11-29T05:08:51Z,42.805,6.029,13.2972,4.59975,2469.984,2019-11-29T07:09:20Z
2019-11-29T05:11:54Z,42.805,6.029,13.2975,4.59974,2469.984,2019-11-29T07:12:23Z
2019-11-29T05:14:57Z,42.805,6.029,13.2972,4.59975,2469.984,2019-11-29T07:15:26Z
2019-11-29T05:18:01Z,42.805,6.029,13.2976,4.59975,2469.97,2019-11-29T07:18:29Z
2019-11-29T05:21:04Z,42.805,6.029,13.2976,4.59980,2469.984,2019-11-29T07:21:33Z
2019-11-29T05:24:07Z,42.805,6.029,13.2975,4.59975,2470.017,2019-11-29T07:24:36Z
2019-11-29T05:27:10Z,42.805,6.029,13.2982,4.59976,2470.007,2019-11-29T07:27:39Z
2019-11-29T05:30:13Z,42.805,6.029,13.2974,4.59976,2469.993,2019-11-29T07:30:42Z
2019-11-29T05:33:17Z,42.805,6.029,13.2975,4.59975,2469.993,2019-11-29T07:33:46Z
2019-11-29T05:36:20Z,42.805,6.029,13.2973,4.59978,2470.017,2019-11-29T07:36:49Z
2019-11-29T05:39:23Z,42.805,6.029,13.2976,4.59974,2470.017,2019-11-29T07:39:52Z
2019-11-29T05:42:26Z,42.805,6.029,13.2977,4.59973,2470.017,2019-11-29T07:42:55Z
2019-11-29T05:45:30Z,42.805,6.029,13.2974,4.59975,2470.03,2019-11-29T07:45:58Z
2019-11-29T05:48:33Z,42.805,6.029,13.2975,4.59973,2470.077,2019-11-29T07:49:01Z
2019-11-29T05:51:36Z,42.805,6.029,13.2974,4.59974,2470.04,2019-11-29T07:52:05Z
2019-11-29T05:54:39Z,42.805,6.029,13.2974,4.59976,2470.053,2019-11-29T07:55:08Z
2019-11-29T05:57:42Z,42.805,6.029,13.2975,4.59975,2470.063,2019-11-29T07:58:11Z
2019-11-29T06:00:45Z,42.805,6.029,13.2976,4.59978,2470.063,2019-11-29T08:01:14Z
2019-11-29T06:03:49Z,42.805,6.029,13.2976,4.59981,2470.04,2019-11-29T08:04:17Z
2019-11-29T06:06:52Z,42.805,6.029,13.2976,4.59976,2470.087,2019-11-29T08:07:21Z
2019-11-29T06:09:55Z,42.805,6.029,13.2974,4.59976,2470.077,2019-11-29T08:10:24Z
2019-11-29T06:12:58Z,42.805,6.029,13.2975,4.59975,2470.077,2019-11-29T08:13:27Z
2019-11-29T06:16:01Z,42.805,6.029,13.2974,4.59976,2470.04,2019-11-29T08:16:30Z
2019-11-29T06:19:05Z,42.805,6.029,13.2976,4.59976,2470.087,2019-11-29T08:19:34Z
2019-11-29T06:22:08Z,42.805,6.029,13.2976,4.59976,2470.063,2019-11-29T08:22:37Z
2019-11-29T06:25:11Z,42.805,6.029,13.2975,4.59975,2470.087,2019-11-29T08:25:40Z
2019-11-29T06:28:14Z,42.805,6.029,13.2973,4.59974,2470.063,2019-11-29T08:28:43Z
2019-11-29T06:31:18Z,42.805,6.029,13.2979,4.59976,2470.087,2019-11-29T08:31:46Z
2019-11-29T06:34:21Z,42.805,6.029,13.2978,4.59976,2470.087,2019-11-29T08:34:50Z
2019-11-29T06:37:24Z,42.805,6.029,13.2975,4.59975,2470.11,2019-11-29T08:37:53Z
2019-11-29T06:40:28Z,42.805,6.029,13.2977,4.59975,2470.087,2019-11-29T08:40:56Z
2019-11-29T06:43:31Z,42.805,6.029,13.2974,4.59975,2470.1,2019-11-29T08:44:00Z
2019-11-29T06:46:34Z,42.805,6.029,13.2974,4.59976,2470.11,2019-11-29T08:47:03Z
2019-11-29T06:49:37Z,42.805,6.029,13.2974,4.59976,2470.124,2019-11-29T08:50:06Z
2019-11-29T06:52:40Z,42.805,6.029,13.2977,4.59975,2470.124,2019-11-29T08:53:09Z
2019-11-29T06:55:44Z,42.805,6.029,13.2977,4.59977,2470.124,2019-11-29T08:56:12Z
2019-11-29T06:58:47Z,42.805,6.029,13.2976,4.59976,2470.11,2019-11-29T08:59:16Z
2019-11-29T07:01:50Z,42.805,6.029,13.2979,4.59976,2470.147,2019-11-29T09:02:19Z
2019-11-29T07:04:53Z,42.805,6.029,13.2976,4.59976,2470.133,2019-11-29T09:05:22Z
2019-11-29T07:07:56Z,42.805,6.029,13.2979,4.59977,2470.096,2019-11-29T09:08:25Z
2019-11-29T07:11:00Z,42.805,6.029,13.2976,4.59982,2470.156,2019-11-29T09:11:28Z
2019-11-29T07:14:03Z,42.805,6.029,13.2972,4.59977,2470.133,2019-11-29T09:14:32Z
2019-11-29T07:17:06Z,42.805,6.029,13.2976,4.59986,2470.133,2019-11-29T09:17:35Z
2019-11-29T07:20:09Z,42.805,6.029,13.2975,4.59979,2470.156,2019-11-29T09:20:38Z
2019-11-29T07:23:12Z,42.805,6.029,13.2976,4.59978,2470.133,2019-11-29T09:23:41Z
2019-11-29T07:26:16Z,42.805,6.029,13.2976,4.59975,2470.147,2019-11-29T09:26:44Z
2019-11-29T07:29:19Z,42.805,6.029,13.2979,4.59976,2470.147,2019-11-29T09:29:48Z
2019-11-29T07:32:22Z,42.805,6.029,13.2979,4.59976,2470.171,2019-11-29T09:32:51Z
2019-11-29T07:35:25Z,42.805,6.029,13.2974,4.59977,2470.18,2019-11-29T09:35:54Z
2019-11-29T07:38:28Z,42.805,6.029,13.2972,4.59976,2470.18,2019-11-29T09:38:57Z
2019-11-29T07:41:32Z,42.805,6.029,13.2975,4.59975,2470.18,2019-11-29T09:42:01Z
2019-11-29T07:44:35Z,42.805,6.029,13.2974,4.59978,2470.194,2019-11-29T09:45:04Z
2019-11-29T07:47:38Z,42.805,6.029,13.2981,4.59976,2470.171,2019-11-29T09:48:07Z
2019-11-29T07:50:41Z,42.805,6.029,13.2977,4.59976,2470.147,2019-11-29T09:51:10Z
2019-11-29T07:53:45Z,42.805,6.029,13.2976,4.59978,2470.133,2019-11-29T09:54:13Z
2019-11-29T07:56:48Z,42.805,6.029,13.2981,4.59976,2470.18,2019-11-29T09:57:17Z
2019-11-29T07:59:51Z,42.805,6.029,13.2981,4.59976,2470.18,2019-11-29T10:00:20Z
2019-11-29T08:02:54Z,42.805,6.029,13.2976,4.59980,2470.203,2019-11-29T10:03:23Z
2019-11-29T08:05:57Z,42.805,6.029,13.2977,4.59982,2470.194,2019-11-29T10:06:26Z
2019-11-29T08:09:01Z,42.805,6.029,13.2974,4.59978,2470.217,2019-11-29T10:09:29Z
2019-11-29T08:12:04Z,42.805,6.029,13.2977,4.59978,2470.156,2019-11-29T10:12:33Z
2019-11-29T08:15:07Z,42.805,6.029,13.2975,4.59978,2470.203,2019-11-29T10:15:36Z
2019-11-29T08:18:10Z,42.805,6.029,13.2979,4.59980,2470.217,2019-11-29T10:18:39Z
2019-11-29T08:21:13Z,42.805,6.029,13.2977,4.59981,2470.194,2019-11-29T10:21:42Z
2019-11-29T08:24:17Z,42.805,6.029,13.2979,4.59983,2470.171,2019-11-29T10:24:45Z
2019-11-29T08:27:20Z,42.805,6.029,13.2974,4.59983,2470.156,2019-11-29T10:27:49Z
2019-11-29T08:30:23Z,42.805,6.029,13.2975,4.59978,2470.217,2019-11-29T10:30:52Z
2019-11-29T08:33:26Z,42.805,6.029,13.2976,4.59981,2470.227,2019-11-29T10:33:55Z
2019-11-29T08:36:29Z,42.805,6.029,13.2974,4.59994,2470.18,2019-11-29T10:36:58Z
2019-11-29T08:39:33Z,42.805,6.029,13.2979,4.59981,2470.133,2019-11-29T10:40:01Z
2019-11-29T08:42:36Z,42.805,6.029,13.2976,4.59981,2470.18,2019-11-29T10:43:05Z
2019-11-29T08:45:39Z,42.805,6.029,13.2976,4.59976,2470.18,2019-11-29T10:46:08Z
2019-11-29T08:48:42Z,42.805,6.029,13.2982,4.59980,2470.217,2019-11-29T10:49:11Z
2019-11-29T08:51:45Z,42.805,6.029,13.2976,4.59980,2470.203,2019-11-29T10:52:14Z
2019-11-29T08:54:49Z,42.805,6.029,13.2976,4.59981,2470.194,2019-11-29T10:55:17Z
2019-11-29T08:57:52Z,42.805,6.029,13.2975,4.59976,2470.217,2019-11-29T10:58:21Z
2019-11-29T09:00:55Z,42.805,6.029,13.2978,4.59976,2470.203,2019-11-29T11:01:24Z
2019-11-29T09:03:58Z,42.805,6.029,13.2979,4.59976,2470.217,2019-11-29T11:04:27Z
2019-11-29T09:07:02Z,42.805,6.029,13.2977,4.59981,2470.18,2019-11-29T11:07:31Z
2019-11-29T09:10:05Z,42.805,6.029,13.2979,4.59978,2470.194,2019-11-29T11:10:34Z
2019-11-29T09:13:08Z,42.805,6.029,13.2974,4.59978,2470.203,2019-11-29T11:13:37Z
2019-11-29T09:16:11Z,42.805,6.029,13.2977,4.59978,2470.203,2019-11-29T11:16:40Z
2019-11-29T09:19:15Z,42.805,6.029,13.2978,4.59978,2470.227,2019-11-29T11:19:43Z
2019-11-29T09:22:18Z,42.805,6.029,13.2977,4.59981,2470.194,2019-11-29T11:22:47Z
2019-11-29T09:25:21Z,42.805,6.029,13.2979,4.59985,2470.18,2019-11-29T11:25:50Z
2019-11-29T09:28:24Z,42.805,6.029,13.2983,4.59978,2470.203,2019-11-29T11:28:53Z
2019-11-29T09:31:28Z,42.805,6.029,13.2982,4.59978,2470.217,2019-11-29T11:31:57Z
2019-11-29T09:34:31Z,42.805,6.029,13.2980,4.59978,2470.194,2019-11-29T11:35:00Z
2019-11-29T09:37:34Z,42.805,6.029,13.2978,4.59978,2470.18,2019-11-29T11:38:03Z
2019-11-29T09:40:37Z,42.805,6.029,13.2977,4.59980,2470.203,2019-11-29T11:41:06Z
2019-11-29T09:43:41Z,42.805,6.029,13.2978,4.59984,2470.203,2019-11-29T11:44:09Z
2019-11-29T09:46:44Z,42.805,6.029,13.2981,4.59980,2470.18,2019-11-29T11:47:13Z
2019-11-29T09:49:47Z,42.805,6.029,13.2976,4.59991,2470.227,2019-11-29T11:50:16Z
2019-11-29T09:52:50Z,42.805,6.029,13.2978,4.59991,2470.18,2019-11-29T11:53:19Z
2019-11-29T09:55:53Z,42.805,6.029,13.2979,4.59995,2470.18,2019-11-29T11:56:22Z
2019-11-29T09:58:57Z,42.805,6.029,13.2974,4.59989,2470.194,2019-11-29T11:59:25Z
2019-11-29T10:02:00Z,42.805,6.029,13.2979,4.59981,2470.203,2019-11-29T12:02:29Z
2019-11-29T10:05:03Z,42.805,6.029,13.2975,4.59988,2470.227,2019-11-29T12:05:32Z
2019-11-29T10:08:06Z,42.805,6.029,13.2982,4.59983,2470.217,2019-11-29T12:08:35Z
2019-11-29T10:11:09Z,42.805,6.029,13.2982,4.59984,2470.147,2019-11-29T12:11:38Z
2019-11-29T10:14:12Z,42.805,6.029,13.2982,4.59982,2470.156,2019-11-29T12:14:41Z
2019-11-29T10:17:16Z,42.805,6.029,13.2983,4.59981,2470.171,2019-11-29T12:17:45Z
2019-11-29T10:20:19Z,42.805,6.029,13.2973,4.59992,2470.156,2019-11-29T12:20:48Z
2019-11-29T10:23:22Z,42.805,6.029,13.2974,4.59984,2470.18,2019-11-29T12:23:51Z
2019-11-29T10:26:25Z,42.805,6.029,13.2974,4.59992,2470.194,2019-11-29T12:26:54Z
2019-11-29T10:29:28Z,42.805,6.029,13.2973,4.59990,2470.18,2019-11-29T12:29:57Z
2019-11-29T10:32:32Z,42.805,6.029,13.2979,4.59991,2470.156,2019-11-29T12:33:00Z
2019-11-29T10:35:35Z,42.805,6.029,13.2978,4.59983,2470.217,2019-11-29T12:36:04Z
2019-11-29T10:38:38Z,42.805,6.029,13.2977,4.59976,2470.217,2019-11-29T12:39:07Z
2019-11-29T10:41:41Z,42.805,6.029,13.2976,4.59977,2470.194,2019-11-29T12:42:10Z
2019-11-29T10:44:44Z,42.805,6.029,13.2982,4.59985,2470.156,2019-11-29T12:45:13Z
2019-11-29T10:47:47Z,42.805,6.029,13.2979,4.59979,2470.203,2019-11-29T12:48:16Z
2019-11-29T10:50:51Z,42.805,6.029,13.2976,4.59984,2470.194,2019-11-29T12:51:20Z
2019-11-29T10:53:54Z,42.805,6.029,13.2975,4.59981,2470.156,2019-11-29T12:54:23Z
2019-11-29T10:56:57Z,42.805,6.029,13.2975,4.59982,2470.133,2019-11-29T12:57:26Z
2019-11-29T11:00:00Z,42.805,6.029,13.2977,4.59991,2470.133,2019-11-29T13:00:29Z
2019-11-29T11:03:03Z,42.805,6.029,13.2978,4.59986,2470.18,2019-11-29T13:03:32Z
2019-11-29T11:06:07Z,42.805,6.029,13.2973,4.59989,2470.171,2019-11-29T13:06:35Z
2019-11-29T11:09:10Z,42.805,6.029,13.2979,4.59978,2470.133,2019-11-29T13:09:39Z
2019-11-29T11:12:13Z,42.805,6.029,13.2976,4.59976,2470.171,2019-11-29T13:12:42Z
2019-11-29T11:15:16Z,42.805,6.029,13.2983,4.59978,2470.171,2019-11-29T13:15:45Z
2019-11-29T11:18:20Z,42.805,6.029,13.2975,4.59980,2470.194,2019-11-29T13:18:48Z
2019-11-29T11:21:23Z,42.805,6.029,13.2979,4.59978,2470.194,2019-11-29T13:21:52Z
2019-11-29T11:24:26Z,42.805,6.029,13.2983,4.59983,2470.147,2019-11-29T13:24:55Z
2019-11-29T11:27:29Z,42.805,6.029,13.2983,4.59987,2470.171,2019-11-29T13:27:58Z
2019-11-29T11:30:32Z,42.805,6.029,13.2984,4.59979,2470.171,2019-11-29T13:31:01Z
2019-11-29T11:33:36Z,42.805,6.029,13.2985,4.59982,2470.147,2019-11-29T13:34:04Z
2019-11-29T11:36:39Z,42.805,6.029,13.2990,4.59981,2470.194,2019-11-29T13:37:08Z
2019-11-29T11:39:42Z,42.805,6.029,13.2983,4.59981,2470.194,2019-11-29T13:40:11Z
2019-11-29T11:42:45Z,42.805,6.029,13.2987,4.59981,2470.147,2019-11-29T13:43:14Z
2019-11-29T11:45:48Z,42.805,6.029,13.2979,4.59985,2470.133,2019-11-29T13:46:17Z
2019-11-29T11:48:52Z,42.805,6.029,13.2988,4.59996,2470.171,2019-11-29T13:49:20Z
2019-11-29T11:51:55Z,42.805,6.029,13.2982,4.60003,2470.156,2019-11-29T13:52:24Z
2019-11-29T11:54:58Z,42.805,6.029,13.2974,4.59996,2470.133,2019-11-29T13:55:27Z
2019-11-29T11:58:01Z,42.805,6.029,13.2974,4.60000,2470.156,2019-11-29T13:58:30Z
2019-11-29T12:01:04Z,42.805,6.029,13.2974,4.59996,2470.147,2019-11-29T14:01:33Z
2019-11-29T12:04:08Z,42.805,6.029,13.2978,4.59979,2470.147,2019-11-29T14:04:36Z
2019-11-29T12:07:11Z,42.805,6.029,13.2972,4.59979,2470.133,2019-11-29T14:07:40Z
2019-11-29T12:10:14Z,42.805,6.029,13.2976,4.59981,2470.133,2019-11-29T14:10:43Z
2019-11-29T12:13:17Z,42.805,6.029,13.2973,4.59982,2470.11,2019-11-29T14:13:46Z
2019-11-29T12:16:20Z,42.805,6.029,13.2973,4.59992,2470.11,2019-11-29T14:16:49Z
2019-11-29T12:19:23Z,42.805,6.029,13.2973,4.59983,2470.11,2019-11-29T14:19:52Z
2019-11-29T12:22:27Z,42.805,6.029,13.2973,4.59984,2470.147,2019-11-29T14:22:56Z
2019-11-29T12:25:30Z,42.805,6.029,13.2976,4.59993,2470.171,2019-11-29T14:25:59Z
2019-11-29T12:28:33Z,42.805,6.029,13.2976,4.59981,2470.133,2019-11-29T14:29:02Z
2019-11-29T12:31:36Z,42.805,6.029,13.2975,4.59980,2470.1,2019-11-29T14:32:05Z
2019-11-29T12:34:39Z,42.805,6.029,13.2970,4.59995,2470.171,2019-11-29T14:35:08Z
2019-11-29T12:37:43Z,42.805,6.029,13.2971,4.60007,2470.124,2019-11-29T14:38:12Z
2019-11-29T12:40:46Z,42.805,6.029,13.2972,4.59999,2470.124,2019-11-29T14:41:15Z
2019-11-29T12:43:49Z,42.805,6.029,13.2974,4.60001,2470.156,2019-11-29T14:44:18Z
2019-11-29T12:46:52Z,42.805,6.029,13.2974,4.59990,2470.147,2019-11-29T14:47:21Z
2019-11-29T12:49:55Z,42.805,6.029,13.2975,4.59990,2470.11,2019-11-29T14:50:24Z
2019-11-29T12:52:59Z,42.805,6.029,13.2976,4.59991,2470.133,2019-11-29T14:53:27Z
2019-11-29T12:56:02Z,42.805,6.029,13.2977,4.59988,2470.133,2019-11-29T14:56:31Z
2019-11-29T12:59:05Z,42.805,6.029,13.2972,4.59983,2470.124,2019-11-29T14:59:34Z
2019-11-29T13:02:09Z,42.805,6.029,13.2976,4.59982,2470.124,2019-11-29T15:02:37Z
2019-11-29T13:05:12Z,42.805,6.029,13.2976,4.59986,2470.124,2019-11-29T15:05:41Z
2019-11-29T13:08:15Z,42.805,6.029,13.2975,4.59981,2470.11,2019-11-29T15:08:44Z
2019-11-29T13:11:18Z,42.805,6.029,13.2972,4.59978,2470.11,2019-11-29T15:11:47Z
2019-11-29T13:14:21Z,42.805,6.029,13.2975,4.59981,2470.1,2019-11-29T15:14:50Z
2019-11-29T13:17:24Z,42.805,6.029,13.2976,4.59980,2470.124,2019-11-29T15:17:53Z
2019-11-29T13:20:28Z,42.805,6.029,13.2972,4.59982,2470.147,2019-11-29T15:20:56Z
2019-11-29T13:23:31Z,42.805,6.029,13.2974,4.59982,2470.11,2019-11-29T15:24:00Z
2019-11-29T13:26:34Z,42.805,6.029,13.2976,4.59983,2470.087,2019-11-29T15:27:03Z
2019-11-29T13:29:37Z,42.805,6.029,13.2976,4.59986,2470.124,2019-11-29T15:30:06Z
2019-11-29T13:32:41Z,42.805,6.029,13.2976,4.59981,2470.1,2019-11-29T15:33:09Z
2019-11-29T13:35:44Z,42.805,6.029,13.2972,4.59993,2470.063,2019-11-29T15:36:13Z
2019-11-29T13:38:47Z,42.805,6.029,13.2978,4.59999,2470.11,2019-11-29T15:39:16Z
2019-11-29T13:41:50Z,42.805,6.029,13.2978,4.60001,2470.11,2019-11-29T15:42:19Z
2019-11-29T13:44:54Z,42.805,6.029,13.2975,4.59982,2470.1,2019-11-29T15:45:22Z
2019-11-29T13:47:57Z,42.805,6.029,13.2976,4.59981,2470.087,2019-11-29T15:48:26Z
2019-11-29T13:51:00Z,42.805,6.029,13.2976,4.59999,2470.124,2019-11-29T15:51:29Z
2019-11-29T13:54:03Z,42.805,6.029,13.2974,4.60001,2470.063,2019-11-29T15:54:32Z
2019-11-29T13:57:06Z,42.805,6.029,13.2975,4.59993,2470.077,2019-11-29T15:57:35Z
2019-11-29T14:00:10Z,42.805,6.029,13.2971,4.59978,2470.087,2019-11-29T16:00:38Z
2019-11-29T14:03:13Z,42.805,6.029,13.2973,4.59990,2470.063,2019-11-29T16:03:42Z
2019-11-29T14:06:16Z,42.805,6.029,13.2971,4.59995,2470.1,2019-11-29T16:06:45Z
2019-11-29T14:09:20Z,42.805,6.029,13.2977,4.59979,2470.1,2019-11-29T16:09:48Z
2019-11-29T14:12:23Z,42.805,6.029,13.2979,4.59991,2470.087,2019-11-29T16:12:52Z
2019-11-29T14:15:26Z,42.805,6.029,13.2976,4.59987,2470.087,2019-11-29T16:15:55Z
2019-11-29T14:18:29Z,42.805,6.029,13.2979,4.59994,2470.077,2019-11-29T16:18:58Z
2019-11-29T14:21:32Z,42.805,6.029,13.2976,4.59984,2470.1,2019-11-29T16:22:01Z
2019-11-29T14:24:36Z,42.805,6.029,13.2976,4.59984,2470.1,2019-11-29T16:25:04Z
2019-11-29T14:27:39Z,42.805,6.029,13.2974,4.59986,2470.1,2019-11-29T16:28:08Z
2019-11-29T14:30:42Z,42.805,6.029,13.2976,4.59979,2470.077,2019-11-29T16:31:11Z
2019-11-29T14:33:45Z,42.805,6.029,13.2978,4.59979,2470.087,2019-11-29T16:34:14Z
2019-11-29T14:36:48Z,42.805,6.029,13.2974,4.59981,2470.087,2019-11-29T16:37:17Z
2019-11-29T14:39:52Z,42.805,6.029,13.2973,4.59995,2470.04,2019-11-29T16:40:20Z
2019-11-29T14:42:55Z,42.805,6.029,13.2975,4.59986,2470.053,2019-11-29T16:43:24Z
2019-11-29T14:45:58Z,42.805,6.029,13.2975,4.59986,2470.063,2019-11-29T16:46:27Z
2019-11-29T14:49:01Z,42.805,6.029,13.2974,4.59995,2470.03,2019-11-29T16:49:30Z
2019-11-29T14:52:04Z,42.805,6.029,13.2971,4.59984,2470.077,2019-11-29T16:52:33Z
2019-11-29T14:55:08Z,42.805,6.029,13.2974,4.59982,2470.063,2019-11-29T16:55:37Z
2019-11-29T14:58:11Z,42.805,6.029,13.2979,4.59978,2470.04,2019-11-29T16:58:40Z
2019-11-29T15:01:14Z,42.805,6.029,13.2974,4.59978,2470.04,2019-11-29T17:01:43Z